Location: Beuvrequen
(50.8014°N, 1.6652°E)
Time: 04:02:32
(UTC+00:00)

Cosmos 1602 Rocket - Pass Details

Date: 16 October 2021
Orbit: 603 x 633 km, 82.5° (Epoch: 05 December)

Event Time Altitude Azimuth Distance (km) Brightness Sun altitude
Rises 18:42:12 0° 355° (N) 2,909 7.2 -17.1°
Reaches altitude 10° 18:44:34 10° 3° (N) 1,992 6.2 -17.5°
Maximum altitude 18:48:42 38° 72° (ENE) 945 4.0 -18.1°
Enters shadow 18:48:56 38° 81° (E) 950 4.0 -18.2°
